STARLINK-3636, 51995

Orbit data source: Space-Track

STARLINK-3636, 51995 is a payload satellite owned by SpaceX/Seattle (US) in LEO that was launched on Wed, 09 Mar 2022 UTC via an FALCON 9 launch vehicle from the Air Force Eastern Test Range (AFETR). Payload-class satellites include a variety of spacecraft equipped with specific instruments for various scientific and technological missions. These include communications satellites like Starlink; space stations such as the ISS; scientific satellites like the Hubble; Earth observation satellites from companies like Planet Labs, Umbra, and HawkEye 360; GPS; miniature CubeSats for education and research; and military/defense satellites.

Loading next visibility...
Identifier
51995, 2022-025AR
Orbit
LEO
Country
Flag of USUS
Related business
Manufacturer
SpaceX/Seattle
Mission
Operational Commercial Communications
Bus & Motor
STARLINK, Unknown motor
Mass
297 kg wet, ~275 kg dry
Launch date (UTC)
2022-03-09 (4 years ago)
Launch vehicle
FALCON 9
Launch site
Air Force Eastern Test Range (AFETR)
Object type
Payload
Rocket body
Debris
Shape & HBR
Box + 1 Pan, 10.1 m
Radar Cross Section
13.562 m², Large (>1 m²)

Expand to show TLE details & history
Last TLE update: 3 days ago

TLE from 3 days ago
0 STARLINK-3636
1 51995U 22025AR  26170.61951672  .00000302  00000-0  37055-4 0  9992
2 51995  53.1580 281.4258 0001219  85.4026 274.7105 15.08831830236296
Epoch: 2026-06-19T14:52Z
TLE epoch observation values (Epoch: 2026-06-19T14:52:06.244Z)
Latitude
Longitude
150.5539°
Altitude
540.59 km
Speed
7.593 km/s
True Right ascension
18h 45m 42s
True Declination
0° 00' 00"
Sunlit
Object was in full shadow at epoch
Visualization orbit readout
Latitude
Unknown
Longitude
Unknown
Altitude
Unknown
Speed
Unknown
Apparent Right ascension
Unknown
Apparent Declination
Unknown
Sunlit
N/A
Visualization observer readout
Local Sidereal Time
21:36:32
Azimuth
Unknown
Elevation
Unknown
Doppler factor
Unknown
Orbital elements
Apogee altitude
540.866 km
Perigee altitude
539.179 km
Semi-major axis
6,918.16 km
Eccentricity
0.00012
Inclination
53.158°
RAAN
281.4258°
Arg. of periapsis
85.4026°
True anomaly
274.69658°
Mean anomaly
274.7105°
Eccentric anomaly
274.70354°
Mean motion
3.77187 °/min
Orbital period
95.44 mins
BSTAR
0.000037055
Loading maneuver chart data...
Computing Atmospheric mass density...
Loading historical data...
Loading historical data...
Loading historical data...
Loading historical data...
Loading historical data...
Loading historical data...
Loading historical data...

Documentation

Showing up to 5 results
|